Time,TemperatureF,DewpointF,PressureIn,WindDirection,WindDirectionDegrees,WindSpeedMPH,WindSpeedGustMPH,Humidity,HourlyPrecipIn,Conditions,Clouds,dailyrainin,SoftwareType,DateUTC
2013-02-24 00:00:00,46.8,32.8,29.93,ESE,119,0.0,9.0,58,0.00,,---,0.00,VWS V14.01,2013-02-24 08:00:00,
2013-02-24 00:05:00,46.5,33.0,29.93,SSW,210,3.0,3.0,59,0.00,,---,0.00,VWS V14.01,2013-02-24 08:05:00,
2013-02-24 00:10:00,46.4,32.0,29.93,East,99,0.0,5.0,57,0.00,,---,0.00,VWS V14.01,2013-02-24 08:10:00,
2013-02-24 00:15:00,46.4,32.0,29.94,ESE,102,0.0,5.0,57,0.00,,---,0.00,VWS V14.01,2013-02-24 08:15:00,
2013-02-24 00:20:00,46.4,31.6,29.94,SE,136,0.0,5.0,56,0.00,,---,0.00,VWS V14.01,2013-02-24 08:20:00,
2013-02-24 00:25:00,46.2,31.4,29.94,NE,49,0.0,5.0,56,0.00,,---,0.00,VWS V14.01,2013-02-24 08:25:00,
2013-02-24 00:30:00,46.0,31.2,29.94,NE,51,0.0,5.0,56,0.00,,---,0.00,VWS V14.01,2013-02-24 08:30:00,
2013-02-24 00:35:00,45.8,31.0,29.94,NE,51,0.0,1.0,56,0.00,,---,0.00,VWS V14.01,2013-02-24 08:35:00,
2013-02-24 00:40:00,45.5,31.2,29.94,ENE,65,0.0,2.0,57,0.00,,---,0.00,VWS V14.01,2013-02-24 08:40:00,
2013-02-24 00:45:00,45.2,31.3,29.95,NNW,342,2.0,7.0,58,0.00,,---,0.00,VWS V14.01,2013-02-24 08:45:00,
2013-02-24 00:50:00,45.4,27.9,29.95,SE,130,0.0,7.0,50,0.00,,---,0.00,VWS V14.01,2013-02-24 08:50:00,
2013-02-24 00:55:00,45.4,27.9,29.95,ESE,103,0.0,7.0,50,0.00,,---,0.00,VWS V14.01,2013-02-24 08:55:00,
2013-02-24 01:00:00,45.5,28.0,29.95,South,178,0.0,7.0,50,0.00,,---,0.00,VWS V14.01,2013-02-24 09:00:00,
2013-02-24 01:05:00,45.5,28.9,29.95,East,88,2.0,8.0,52,0.00,,---,0.00,VWS V14.01,2013-02-24 09:05:00,
2013-02-24 01:10:00,47.1,17.3,29.95,NNE,14,2.0,8.0,30,0.00,,---,0.00,VWS V14.01,2013-02-24 09:10:00,
2013-02-24 01:15:00,48.3,15.9,29.95,NNE,31,0.0,8.0,27,0.00,,---,0.00,VWS V14.01,2013-02-24 09:15:00,
2013-02-24 01:20:00,49.2,15.8,29.95,NE,35,2.0,12.0,26,0.00,,---,0.00,VWS V14.01,2013-02-24 09:20:00,
2013-02-24 01:25:00,49.6,14.3,29.95,North,0,2.0,12.0,24,0.00,,---,0.00,VWS V14.01,2013-02-24 09:25:00,
2013-02-24 01:30:00,50.2,14.8,29.97,NE,55,2.0,13.0,24,0.00,,---,0.00,VWS V14.01,2013-02-24 09:30:00,
2013-02-24 01:35:00,50.4,13.0,29.97,NE,35,5.0,13.0,22,0.00,,---,0.00,VWS V14.01,2013-02-24 09:35:00,
2013-02-24 01:40:00,50.5,13.1,29.97,SE,124,1.0,13.0,22,0.00,,---,0.00,VWS V14.01,2013-02-24 09:40:00,
2013-02-24 01:45:00,50.5,13.1,29.95,North,0,2.0,13.0,22,0.00,,---,0.00,VWS V14.01,2013-02-24 09:45:00,
2013-02-24 01:50:00,50.4,13.0,29.95,NNW,343,0.0,13.0,22,0.00,,---,0.00,VWS V14.01,2013-02-24 09:50:00,
2013-02-24 01:55:00,50.1,12.8,29.95,North,4,1.0,13.0,22,0.00,,---,0.00,VWS V14.01,2013-02-24 09:55:00,
2013-02-24 02:00:00,49.8,12.5,29.94,NE,45,2.0,13.0,22,0.00,,---,0.00,VWS V14.01,2013-02-24 10:00:00,
2013-02-24 02:05:00,49.6,13.3,29.94,ESE,123,1.0,3.0,23,0.00,,---,0.00,VWS V14.01,2013-02-24 10:05:00,
2013-02-24 02:10:00,49.5,12.2,29.94,North,3,0.0,3.0,22,0.00,,---,0.00,VWS V14.01,2013-02-24 10:10:00,
2013-02-24 02:15:00,49.2,13.0,29.95,NNW,342,1.0,5.0,23,0.00,,---,0.00,VWS V14.01,2013-02-24 10:15:00,
2013-02-24 02:20:00,48.9,12.8,29.95,North,3,1.0,6.0,23,0.00,,---,0.00,VWS V14.01,2013-02-24 10:20:00,
2013-02-24 02:25:00,48.6,12.5,29.95,SSE,152,0.0,6.0,23,0.00,,---,0.00,VWS V14.01,2013-02-24 10:25:00,
2013-02-24 02:30:00,48.8,11.7,29.94,NNW,339,1.0,6.0,22,0.00,,---,0.00,VWS V14.01,2013-02-24 10:30:00,
2013-02-24 02:35:00,48.9,11.7,29.94,NW,304,7.0,8.0,22,0.00,,---,0.00,VWS V14.01,2013-02-24 10:35:00,
2013-02-24 02:40:00,49.9,11.5,29.94,North,1,7.0,13.0,21,0.00,,---,0.00,VWS V14.01,2013-02-24 10:40:00,
2013-02-24 02:45:00,50.5,10.9,29.93,ENE,62,0.0,13.0,20,0.00,,---,0.00,VWS V14.01,2013-02-24 10:45:00,
2013-02-24 02:50:00,50.5,12.0,29.93,ENE,62,0.0,13.0,21,0.00,,---,0.00,VWS V14.01,2013-02-24 10:50:00,
2013-02-24 02:55:00,49.9,11.5,29.93,WNW,299,1.0,13.0,21,0.00,,---,0.00,VWS V14.01,2013-02-24 10:55:00,
2013-02-24 03:00:00,49.2,14.0,29.94,SSE,148,0.0,13.0,24,0.00,,---,0.00,VWS V14.01,2013-02-24 11:00:00,
2013-02-24 03:05:00,48.6,13.5,29.94,SW,234,1.0,7.0,24,0.00,,---,0.00,VWS V14.01,2013-02-24 11:05:00,
2013-02-24 03:10:00,48.6,7.0,29.94,WSW,251,0.0,7.0,18,0.00,,---,0.00,VWS V14.01,2013-02-24 11:10:00,
2013-02-24 03:15:00,48.8,8.4,29.95,SSE,162,5.0,7.0,19,0.00,,---,0.00,VWS V14.01,2013-02-24 11:15:00,
2013-02-24 03:20:00,48.8,7.2,29.95,NNE,30,6.0,7.0,18,0.00,,---,0.00,VWS V14.01,2013-02-24 11:20:00,
2013-02-24 03:25:00,49.1,8.6,29.95,NNE,18,6.0,7.0,19,0.00,,---,0.00,VWS V14.01,2013-02-24 11:25:00,
2013-02-24 03:30:00,49.6,5.3,29.95,ENE,64,1.0,10.0,16,0.00,,---,0.00,VWS V14.01,2013-02-24 11:30:00,
2013-02-24 03:35:00,49.9,5.5,29.95,NW,305,2.0,6.0,16,0.00,,---,0.00,VWS V14.01,2013-02-24 11:35:00,
2013-02-24 03:40:00,50.1,5.7,29.95,NNE,14,1.0,6.0,16,0.00,,---,0.00,VWS V14.01,2013-02-24 11:40:00,
2013-02-24 03:45:00,50.1,4.3,29.95,NNW,340,0.0,6.0,15,0.00,,---,0.00,VWS V14.01,2013-02-24 11:45:00,
2013-02-24 03:50:00,49.8,4.0,29.95,NNW,340,0.0,6.0,15,0.00,,---,0.00,VWS V14.01,2013-02-24 11:50:00,
2013-02-24 03:55:00,49.1,6.2,29.95,NW,312,0.0,6.0,17,0.00,,---,0.00,VWS V14.01,2013-02-24 11:55:00,
2013-02-24 04:00:00,48.2,6.7,29.95,NW,304,0.0,6.0,18,0.00,,---,0.00,VWS V14.01,2013-02-24 12:00:00,
2013-02-24 04:05:00,47.4,4.8,29.95,ENE,61,2.0,4.0,17,0.00,,---,0.00,VWS V14.01,2013-02-24 12:05:00,
2013-02-24 04:10:00,47.1,4.5,29.95,ENE,66,0.0,5.0,17,0.00,,---,0.00,VWS V14.01,2013-02-24 12:10:00,
2013-02-24 04:15:00,47.4,4.8,29.98,North,356,5.0,10.0,17,0.00,,---,0.00,VWS V14.01,2013-02-24 12:15:00,
2013-02-24 04:20:00,48.3,1.3,29.98,North,356,11.0,14.0,14,0.00,,---,0.00,VWS V14.01,2013-02-24 12:20:00,
2013-02-24 04:25:00,48.9,3.3,29.98,NE,37,0.0,14.0,15,0.00,,---,0.00,VWS V14.01,2013-02-24 12:25:00,
2013-02-24 04:29:00,48.8,3.2,29.98,North,11,2.0,14.0,15,0.00,,---,0.00,VWS V14.01,2013-02-24 12:29:00,
2013-02-24 04:34:00,48.5,3.0,29.98,NNW,344,1.0,3.0,15,0.00,,---,0.00,VWS V14.01,2013-02-24 12:34:00,
2013-02-24 04:40:00,48.3,2.8,29.98,NE,38,1.0,3.0,15,0.00,,---,0.00,VWS V14.01,2013-02-24 12:40:00,
2013-02-24 04:45:00,48.2,2.7,29.98,NNE,23,1.0,8.0,15,0.00,,---,0.00,VWS V14.01,2013-02-24 12:45:00,
2013-02-24 04:50:00,48.2,1.2,29.98,North,349,0.0,8.0,14,0.00,,---,0.00,VWS V14.01,2013-02-24 12:50:00,
2013-02-24 04:55:00,48.5,3.0,29.98,NNE,27,5.0,10.0,15,0.00,,---,0.00,VWS V14.01,2013-02-24 12:55:00,
2013-02-24 05:00:00,48.8,1.7,29.98,North,0,7.0,10.0,14,0.00,,---,0.00,VWS V14.01,2013-02-24 13:00:00,
2013-02-24 05:05:00,48.9,1.8,29.98,North,0,1.0,8.0,14,0.00,,---,0.00,VWS V14.01,2013-02-24 13:05:00,
2013-02-24 05:10:00,48.6,3.0,29.98,NNE,32,0.0,8.0,15,0.00,,---,0.00,VWS V14.01,2013-02-24 13:10:00,
2013-02-24 05:15:00,48.2,4.1,29.99,East,83,1.0,8.0,16,0.00,,---,0.00,VWS V14.01,2013-02-24 13:15:00,
2013-02-24 05:20:00,47.4,4.8,29.99,NNE,31,0.0,8.0,17,0.00,,---,0.00,VWS V14.01,2013-02-24 13:20:00,
2013-02-24 05:25:00,47.0,4.5,29.99,NW,325,0.0,8.0,17,0.00,,---,0.00,VWS V14.01,2013-02-24 13:25:00,
2013-02-24 05:30:00,46.4,6.4,30.00,NNW,343,0.0,8.0,19,0.00,,---,0.00,VWS V14.01,2013-02-24 13:30:00,
2013-02-24 05:35:00,45.8,4.7,30.00,NW,319,0.0,1.0,18,0.00,,---,0.00,VWS V14.01,2013-02-24 13:35:00,
2013-02-24 05:40:00,45.2,5.4,30.00,NNE,30,0.0,2.0,19,0.00,,---,0.00,VWS V14.01,2013-02-24 13:40:00,
2013-02-24 05:45:00,44.8,6.2,30.02,NNE,30,0.0,2.0,20,0.00,,---,0.00,VWS V14.01,2013-02-24 13:45:00,
2013-02-24 05:50:00,44.6,6.0,30.02,NNE,28,0.0,2.0,20,0.00,,---,0.00,VWS V14.01,2013-02-24 13:50:00,
2013-02-24 05:55:00,43.9,6.5,30.02,WNW,291,0.0,2.0,21,0.00,,---,0.00,VWS V14.01,2013-02-24 13:55:00,
2013-02-24 06:00:00,43.9,6.5,30.01,WNW,284,0.0,2.0,21,0.00,,---,0.00,VWS V14.01,2013-02-24 14:00:00,
2013-02-24 06:05:00,43.9,6.5,30.01,NNW,346,0.0,1.0,21,0.00,,---,0.00,VWS V14.01,2013-02-24 14:05:00,
2013-02-24 06:10:00,43.8,6.4,30.01,NNW,346,0.0,1.0,21,0.00,,---,0.00,VWS V14.01,2013-02-24 14:10:00,
2013-02-24 06:15:00,43.6,7.3,30.03,North,349,0.0,1.0,22,0.00,,---,0.00,VWS V14.01,2013-02-24 14:15:00,
2013-02-24 06:20:00,43.1,6.8,30.03,North,349,0.0,1.0,22,0.00,,---,0.00,VWS V14.01,2013-02-24 14:20:00,
2013-02-24 06:25:00,42.8,8.5,30.03,North,349,0.0,1.0,24,0.00,,---,0.00,VWS V14.01,2013-02-24 14:25:00,
2013-02-24 06:30:00,42.2,8.0,30.04,North,0,0.0,1.0,24,0.00,,---,0.00,VWS V14.01,2013-02-24 14:30:00,
2013-02-24 06:35:00,41.9,7.8,30.04,NNE,21,2.0,2.0,24,0.00,,---,0.00,VWS V14.01,2013-02-24 14:35:00,
2013-02-24 06:40:00,41.6,6.6,30.04,NNW,342,1.0,5.0,23,0.00,,---,0.00,VWS V14.01,2013-02-24 14:40:00,
2013-02-24 06:45:00,41.8,6.7,30.03,NNW,342,0.0,5.0,23,0.00,,---,0.00,VWS V14.01,2013-02-24 14:45:00,
2013-02-24 06:50:00,41.8,6.7,30.03,North,10,0.0,5.0,23,0.00,,---,0.00,VWS V14.01,2013-02-24 14:50:00,
2013-02-24 06:55:00,42.1,7.9,30.03,North,10,0.0,5.0,24,0.00,,---,0.00,VWS V14.01,2013-02-24 14:55:00,
2013-02-24 07:00:00,42.2,8.0,30.05,SE,136,2.0,5.0,24,0.00,,---,0.00,VWS V14.01,2013-02-24 15:00:00,
2013-02-24 07:05:00,42.3,9.0,30.05,SE,137,0.0,1.0,25,0.00,,---,0.00,VWS V14.01,2013-02-24 15:05:00,
2013-02-24 07:10:00,42.6,10.1,30.05,SSE,151,0.0,2.0,26,0.00,,---,0.00,VWS V14.01,2013-02-24 15:10:00,
2013-02-24 07:15:00,43.1,8.8,30.07,SSE,151,0.0,2.0,24,0.00,,---,0.00,VWS V14.01,2013-02-24 15:15:00,
2013-02-24 07:20:00,43.1,9.7,30.07,SSE,151,0.0,2.0,25,0.00,,---,0.00,VWS V14.01,2013-02-24 15:20:00,
2013-02-24 07:25:00,43.1,9.7,30.07,SSE,151,0.0,2.0,25,0.00,,---,0.00,VWS V14.01,2013-02-24 15:25:00,
2013-02-24 07:30:00,43.2,12.3,30.07,SSE,151,1.0,2.0,28,0.00,,---,0.00,VWS V14.01,2013-02-24 15:30:00,
2013-02-24 07:35:00,43.5,12.6,30.07,SSE,151,0.0,1.0,28,0.00,,---,0.00,VWS V14.01,2013-02-24 15:35:00,
2013-02-24 07:40:00,43.6,12.7,30.07,SSE,152,0.0,1.0,28,0.00,,---,0.00,VWS V14.01,2013-02-24 15:40:00,
2013-02-24 07:45:00,43.9,12.9,30.06,SSW,202,0.0,2.0,28,0.00,,---,0.00,VWS V14.01,2013-02-24 15:45:00,
2013-02-24 07:50:00,44.3,13.3,30.06,WSW,244,2.0,2.0,28,0.00,,---,0.00,VWS V14.01,2013-02-24 15:50:00,
2013-02-24 07:55:00,44.9,12.1,30.06,WSW,247,0.0,2.0,26,0.00,,---,0.00,VWS V14.01,2013-02-24 15:55:00,
2013-02-24 08:00:00,45.5,12.6,30.07,WSW,254,0.0,2.0,26,0.00,,---,0.00,VWS V14.01,2013-02-24 16:00:00,
2013-02-24 08:05:00,46.0,12.2,30.07,WSW,254,0.0,1.0,25,0.00,,---,0.00,VWS V14.01,2013-02-24 16:05:00,
2013-02-24 08:10:00,46.5,10.7,30.07,WSW,256,2.0,3.0,23,0.00,,---,0.00,VWS V14.01,2013-02-24 16:10:00,
2013-02-24 08:15:00,47.1,12.2,30.07,West,267,2.0,3.0,24,0.00,,---,0.00,VWS V14.01,2013-02-24 16:15:00,
2013-02-24 08:20:00,48.2,13.1,30.07,West,263,1.0,5.0,24,0.00,,---,0.00,VWS V14.01,2013-02-24 16:20:00,
2013-02-24 08:25:00,48.8,11.7,30.07,SSW,205,0.0,5.0,22,0.00,,---,0.00,VWS V14.01,2013-02-24 16:25:00,
2013-02-24 08:30:00,49.4,14.1,30.07,SW,222,0.0,5.0,24,0.00,,---,0.00,VWS V14.01,2013-02-24 16:30:00,
2013-02-24 08:35:00,50.2,13.9,30.07,SW,232,0.0,1.0,23,0.00,,---,0.00,VWS V14.01,2013-02-24 16:35:00,
2013-02-24 08:40:00,51.1,12.5,30.07,SW,230,0.0,1.0,21,0.00,,---,0.00,VWS V14.01,2013-02-24 16:40:00,
2013-02-24 08:45:00,52.2,12.4,30.07,SSW,210,0.0,2.0,20,0.00,,---,0.00,VWS V14.01,2013-02-24 16:45:00,
2013-02-24 08:50:00,53.2,12.0,30.07,SW,219,1.0,2.0,19,0.00,,---,0.00,VWS V14.01,2013-02-24 16:50:00,
2013-02-24 08:55:00,53.9,10.1,30.07,WSW,246,1.0,4.0,17,0.00,,---,0.00,VWS V14.01,2013-02-24 16:55:00,
2013-02-24 09:00:00,54.8,12.1,30.06,WSW,258,0.0,4.0,18,0.00,,---,0.00,VWS V14.01,2013-02-24 17:00:00,
2013-02-24 09:05:00,55.6,10.1,30.06,SE,130,6.0,6.0,16,0.00,,---,0.00,VWS V14.01,2013-02-24 17:05:00,
2013-02-24 09:10:00,56.2,9.2,30.06,SE,145,1.0,6.0,15,0.00,,---,0.00,VWS V14.01,2013-02-24 17:10:00,
2013-02-24 09:15:00,57.2,10.0,30.06,SSE,151,1.0,6.0,15,0.00,,---,0.00,VWS V14.01,2013-02-24 17:15:00,
2013-02-24 09:20:00,58.0,10.6,30.06,South,178,2.0,6.0,15,0.00,,---,0.00,VWS V14.01,2013-02-24 17:20:00,
2013-02-24 09:25:00,58.6,4.3,30.06,SSW,206,0.0,6.0,11,0.00,,---,0.00,VWS V14.01,2013-02-24 17:25:00,
2013-02-24 09:30:00,58.6,11.1,30.06,WNW,296,0.0,6.0,15,0.00,,---,0.00,VWS V14.01,2013-02-24 17:30:00,
2013-02-24 09:35:00,59.0,12.9,30.06,WNW,301,0.0,2.0,16,0.00,,---,0.00,VWS V14.01,2013-02-24 17:35:00,
2013-02-24 09:40:00,59.3,10.1,30.06,WNW,285,2.0,5.0,14,0.00,,---,0.00,VWS V14.01,2013-02-24 17:40:00,
2013-02-24 09:45:00,59.8,10.5,30.05,WSW,253,6.0,6.0,14,0.00,,---,0.00,VWS V14.01,2013-02-24 17:45:00,
2013-02-24 09:50:00,59.5,10.3,30.05,South,191,1.0,10.0,14,0.00,,---,0.00,VWS V14.01,2013-02-24 17:50:00,
2013-02-24 09:55:00,59.5,10.3,30.05,WNW,282,3.0,10.0,14,0.00,,---,0.00,VWS V14.01,2013-02-24 17:55:00,
2013-02-24 10:00:00,59.9,12.2,30.05,WNW,296,3.0,10.0,15,0.00,,---,0.00,VWS V14.01,2013-02-24 18:00:00,
2013-02-24 10:05:00,60.4,12.6,30.05,West,278,6.0,7.0,15,0.00,,---,0.00,VWS V14.01,2013-02-24 18:05:00,
2013-02-24 10:10:00,61.0,13.0,30.05,NW,313,0.0,7.0,15,0.00,,---,0.00,VWS V14.01,2013-02-24 18:10:00,
2013-02-24 10:15:00,61.5,13.4,30.05,SSE,158,1.0,7.0,15,0.00,,---,0.00,VWS V14.01,2013-02-24 18:15:00,
2013-02-24 10:20:00,61.8,13.7,30.05,SSW,213,3.0,7.0,15,0.00,,---,0.00,VWS V14.01,2013-02-24 18:20:00,
2013-02-24 10:25:00,61.8,15.2,30.05,SW,220,0.0,7.0,16,0.00,,---,0.00,VWS V14.01,2013-02-24 18:25:00,
2013-02-24 10:30:00,62.0,15.3,30.05,SW,226,0.0,7.0,16,0.00,,---,0.00,VWS V14.01,2013-02-24 18:30:00,
2013-02-24 10:35:00,62.0,15.3,30.05,SE,126,1.0,6.0,16,0.00,,---,0.00,VWS V14.01,2013-02-24 18:35:00,
2013-02-24 10:40:00,62.0,15.3,30.05,SW,215,1.0,6.0,16,0.00,,---,0.00,VWS V14.01,2013-02-24 18:40:00,
2013-02-24 10:45:00,62.1,13.9,30.05,South,189,1.0,6.0,15,0.00,,---,0.00,VWS V14.01,2013-02-24 18:45:00,
2013-02-24 10:50:00,62.3,14.1,30.05,SSW,210,1.0,6.0,15,0.00,,---,0.00,VWS V14.01,2013-02-24 18:50:00,
2013-02-24 10:55:00,62.3,14.1,30.05,SSW,205,1.0,6.0,15,0.00,,---,0.00,VWS V14.01,2013-02-24 18:55:00,
2013-02-24 11:00:00,62.4,12.6,30.06,South,188,0.0,6.0,14,0.00,,---,0.00,VWS V14.01,2013-02-24 19:00:00,
2013-02-24 11:05:00,62.6,15.8,30.06,SW,230,1.0,3.0,16,0.00,,---,0.00,VWS V14.01,2013-02-24 19:05:00,
2013-02-24 11:10:00,63.1,16.2,30.06,WSW,241,0.0,3.0,16,0.00,,---,0.00,VWS V14.01,2013-02-24 19:10:00,
2013-02-24 11:15:00,63.2,14.8,30.06,WSW,240,1.0,3.0,15,0.00,,---,0.00,VWS V14.01,2013-02-24 19:15:00,
2013-02-24 11:20:00,63.7,16.7,30.06,WSW,257,0.0,3.0,16,0.00,,---,0.00,VWS V14.01,2013-02-24 19:20:00,
2013-02-24 11:25:00,63.9,13.8,30.06,West,278,2.0,4.0,14,0.00,,---,0.00,VWS V14.01,2013-02-24 19:25:00,
2013-02-24 11:30:00,64.2,15.6,30.06,WSW,246,6.0,7.0,15,0.00,,---,0.00,VWS V14.01,2013-02-24 19:30:00,
2013-02-24 11:35:00,64.3,12.4,30.06,WNW,301,2.0,6.0,13,0.00,,---,0.00,VWS V14.01,2013-02-24 19:35:00,
2013-02-24 11:40:00,64.2,14.0,30.06,WSW,253,6.0,7.0,14,0.00,,---,0.00,VWS V14.01,2013-02-24 19:40:00,
2013-02-24 11:45:00,64.0,16.9,30.05,SW,229,1.0,7.0,16,0.00,,---,0.00,VWS V14.01,2013-02-24 19:45:00,
2013-02-24 11:50:00,64.0,16.9,30.05,West,261,5.0,7.0,16,0.00,,---,0.00,VWS V14.01,2013-02-24 19:50:00,
2013-02-24 11:55:00,64.5,15.9,30.05,West,270,1.0,7.0,15,0.00,,---,0.00,VWS V14.01,2013-02-24 19:55:00,
2013-02-24 12:00:00,65.0,16.3,30.04,WNW,296,1.0,7.0,15,0.00,,---,0.00,VWS V14.01,2013-02-24 20:00:00,
2013-02-24 12:05:00,65.2,14.8,30.04,West,260,0.0,5.0,14,0.00,,---,0.00,VWS V14.01,2013-02-24 20:05:00,
2013-02-24 12:10:00,65.3,16.5,30.04,SSW,200,2.0,6.0,15,0.00,,---,0.00,VWS V14.01,2013-02-24 20:10:00,
2013-02-24 12:15:00,65.5,16.7,30.04,SSW,200,0.0,6.0,15,0.00,,---,0.00,VWS V14.01,2013-02-24 20:15:00,
2013-02-24 12:20:00,65.5,16.7,30.04,WSW,246,0.0,6.0,15,0.00,,---,0.00,VWS V14.01,2013-02-24 20:20:00,
2013-02-24 12:25:00,65.5,16.7,30.04,South,191,1.0,6.0,15,0.00,,---,0.00,VWS V14.01,2013-02-24 20:25:00,
2013-02-24 12:30:00,65.5,16.7,30.03,SE,143,0.0,6.0,15,0.00,,---,0.00,VWS V14.01,2013-02-24 20:30:00,
2013-02-24 12:35:00,65.5,18.1,30.03,NE,48,3.0,7.0,16,0.00,,---,0.00,VWS V14.01,2013-02-24 20:35:00,
2013-02-24 12:40:00,65.3,16.5,30.03,SW,216,0.0,7.0,15,0.00,,---,0.00,VWS V14.01,2013-02-24 20:40:00,
2013-02-24 12:45:00,64.8,17.6,30.02,NNE,18,1.0,7.0,16,0.00,,---,0.00,VWS V14.01,2013-02-24 20:45:00,
2013-02-24 12:50:00,64.5,20.1,30.02,NNW,333,1.0,7.0,18,0.00,,---,0.00,VWS V14.01,2013-02-24 20:50:00,
2013-02-24 12:55:00,64.8,20.3,30.02,ENE,71,1.0,7.0,18,0.00,,---,0.00,VWS V14.01,2013-02-24 20:55:00,
2013-02-24 13:00:00,65.2,13.1,30.02,South,186,0.0,7.0,13,0.00,,---,0.00,VWS V14.01,2013-02-24 21:00:00,
2013-02-24 13:05:00,65.5,13.4,30.02,NNE,27,6.0,8.0,13,0.00,,---,0.00,VWS V14.01,2013-02-24 21:05:00,
2013-02-24 13:10:00,64.7,12.8,30.02,North,1,0.0,8.0,13,0.00,,---,0.00,VWS V14.01,2013-02-24 21:10:00,
2013-02-24 13:15:00,65.0,16.3,30.01,North,0,3.0,8.0,15,0.00,,---,0.00,VWS V14.01,2013-02-24 21:15:00,
2013-02-24 13:20:00,65.0,14.7,30.01,NNE,13,1.0,8.0,14,0.00,,---,0.00,VWS V14.01,2013-02-24 21:20:00,
2013-02-24 13:25:00,65.2,9.4,30.01,NNE,32,2.0,8.0,11,0.00,,---,0.00,VWS V14.01,2013-02-24 21:25:00,
2013-02-24 13:30:00,64.8,14.5,30.01,NNE,16,0.0,10.0,14,0.00,,---,0.00,VWS V14.01,2013-02-24 21:30:00,
2013-02-24 13:35:00,65.3,13.2,30.01,North,1,4.0,4.0,13,0.00,,---,0.00,VWS V14.01,2013-02-24 21:35:00,
2013-02-24 13:40:00,65.6,15.1,30.01,East,86,2.0,11.0,14,0.00,,---,0.00,VWS V14.01,2013-02-24 21:40:00,
2013-02-24 13:45:00,66.0,17.1,30.01,SE,140,2.0,11.0,15,0.00,,---,0.00,VWS V14.01,2013-02-24 21:45:00,
2013-02-24 13:50:00,65.8,15.3,30.01,ESE,112,6.0,11.0,14,0.00,,---,0.00,VWS V14.01,2013-02-24 21:50:00,
2013-02-24 13:55:00,65.3,11.4,30.01,ENE,69,5.0,12.0,12,0.00,,---,0.00,VWS V14.01,2013-02-24 21:55:00,
2013-02-24 14:00:00,65.3,11.4,30.01,NNE,30,6.0,13.0,12,0.00,,---,0.00,VWS V14.01,2013-02-24 22:00:00,
2013-02-24 14:05:00,64.7,6.9,30.01,North,3,3.0,12.0,10,0.00,,---,0.00,VWS V14.01,2013-02-24 22:05:00,
2013-02-24 14:10:00,64.3,6.6,30.01,NE,44,5.0,13.0,10,0.00,,---,0.00,VWS V14.01,2013-02-24 22:10:00,
2013-02-24 14:15:00,64.2,8.6,30.01,NE,48,6.0,13.0,11,0.00,,---,0.00,VWS V14.01,2013-02-24 22:15:00,
2013-02-24 14:20:00,63.9,6.3,30.01,North,0,5.0,17.0,10,0.00,,---,0.00,VWS V14.01,2013-02-24 22:20:00,
2013-02-24 14:25:00,63.7,10.2,30.01,NW,316,3.0,17.0,12,0.00,,---,0.00,VWS V14.01,2013-02-24 22:25:00,
2013-02-24 14:30:00,64.2,10.6,30.01,North,1,7.0,17.0,12,0.00,,---,0.00,VWS V14.01,2013-02-24 22:30:00,
2013-02-24 14:35:00,64.5,10.8,30.01,NE,56,6.0,12.0,12,0.00,,---,0.00,VWS V14.01,2013-02-24 22:35:00,
2013-02-24 14:40:00,64.8,9.1,30.01,NNE,32,0.0,12.0,11,0.00,,---,0.00,VWS V14.01,2013-02-24 22:40:00,
2013-02-24 14:45:00,65.0,9.2,30.01,ENE,62,9.0,12.0,11,0.00,,---,0.00,VWS V14.01,2013-02-24 22:45:00,
2013-02-24 14:50:00,64.8,11.0,30.01,NE,51,4.0,12.0,12,0.00,,---,0.00,VWS V14.01,2013-02-24 22:50:00,
2013-02-24 14:55:00,64.7,9.0,30.01,East,97,1.0,13.0,11,0.00,,---,0.00,VWS V14.01,2013-02-24 22:55:00,
2013-02-24 15:00:00,64.7,9.0,30.01,NE,44,8.0,13.0,11,0.00,,---,0.00,VWS V14.01,2013-02-24 23:00:00,
2013-02-24 15:05:00,64.5,8.9,30.01,NNE,27,8.0,8.0,11,0.00,,---,0.00,VWS V14.01,2013-02-24 23:05:00,
2013-02-24 15:10:00,64.2,8.6,30.01,North,0,7.0,8.0,11,0.00,,---,0.00,VWS V14.01,2013-02-24 23:10:00,
2013-02-24 15:14:00,63.7,6.1,30.01,North,359,3.0,10.0,10,0.00,,---,0.00,VWS V14.01,2013-02-24 23:14:00,
2013-02-24 15:19:00,63.5,6.0,30.01,NNW,333,3.0,10.0,10,0.00,,---,0.00,VWS V14.01,2013-02-24 23:19:00,
2013-02-24 15:24:00,63.4,5.9,30.01,North,7,1.0,10.0,10,0.00,,---,0.00,VWS V14.01,2013-02-24 23:24:00,
2013-02-24 15:29:00,63.2,5.8,30.01,ENE,76,3.0,11.0,10,0.00,,---,0.00,VWS V14.01,2013-02-24 23:29:00,
2013-02-24 15:34:00,63.1,7.8,30.01,North,6,0.0,8.0,11,0.00,,---,0.00,VWS V14.01,2013-02-24 23:34:00,
2013-02-24 15:39:00,63.2,0.9,30.01,East,86,1.0,8.0,8,0.00,,---,0.00,VWS V14.01,2013-02-24 23:39:00,
2013-02-24 15:44:00,63.1,3.4,30.01,NNE,25,0.0,8.0,9,0.00,,---,0.00,VWS V14.01,2013-02-24 23:44:00,
2013-02-24 15:49:00,62.9,3.2,30.01,North,356,0.0,8.0,9,0.00,,---,0.00,VWS V14.01,2013-02-24 23:49:00,
2013-02-24 15:55:00,62.6,5.3,30.01,NNE,27,2.0,10.0,10,0.00,,---,0.00,VWS V14.01,2013-02-24 23:55:00,
2013-02-24 15:59:00,62.3,5.1,30.00,North,0,0.0,11.0,10,0.00,,---,0.00,VWS V14.01,2013-02-24 23:59:00,
2013-02-24 16:04:00,62.0,6.9,30.00,North,353,5.0,8.0,11,0.00,,---,0.00,VWS V14.01,2013-02-25 00:04:00,
2013-02-24 16:09:00,61.5,6.5,30.00,North,350,0.0,11.0,11,0.00,,---,0.00,VWS V14.01,2013-02-25 00:09:00,
2013-02-24 16:14:00,61.3,8.3,30.00,East,88,3.0,11.0,12,0.00,,---,0.00,VWS V14.01,2013-02-25 00:14:00,
2013-02-24 16:19:00,61.0,6.1,30.00,NW,322,0.0,12.0,11,0.00,,---,0.00,VWS V14.01,2013-02-25 00:19:00,
2013-02-24 16:24:00,60.9,6.1,30.00,WNW,295,2.0,12.0,11,0.00,,---,0.00,VWS V14.01,2013-02-25 00:24:00,
2013-02-24 16:29:00,60.5,9.4,30.00,NNW,346,3.0,12.0,13,0.00,,---,0.00,VWS V14.01,2013-02-25 00:29:00,
2013-02-24 16:34:00,60.1,7.3,30.00,North,3,1.0,13.0,12,0.00,,---,0.00,VWS V14.01,2013-02-25 00:34:00,
2013-02-24 16:39:00,59.8,5.2,30.00,NNE,28,6.0,13.0,11,0.00,,---,0.00,VWS V14.01,2013-02-25 00:39:00,
2013-02-24 16:44:00,59.5,6.9,30.02,NE,42,0.0,13.0,12,0.00,,---,0.00,VWS V14.01,2013-02-25 00:44:00,
2013-02-24 16:49:00,59.3,6.7,30.02,NNW,333,7.0,13.0,12,0.00,,---,0.00,VWS V14.01,2013-02-25 00:49:00,
2013-02-24 16:54:00,59.0,6.5,30.02,North,0,1.0,13.0,12,0.00,,---,0.00,VWS V14.01,2013-02-25 00:54:00,
2013-02-24 16:59:00,58.9,6.4,30.02,NE,40,0.0,13.0,12,0.00,,---,0.00,VWS V14.01,2013-02-25 00:59:00,
2013-02-24 17:04:00,58.6,7.9,30.02,NNW,339,0.0,2.0,13,0.00,,---,0.00,VWS V14.01,2013-02-25 01:04:00,
2013-02-24 17:09:00,58.4,7.8,30.02,SSW,202,0.0,2.0,13,0.00,,---,0.00,VWS V14.01,2013-02-25 01:09:00,
2013-02-24 17:14:00,58.1,5.8,30.03,SSW,205,0.0,4.0,12,0.00,,---,0.00,VWS V14.01,2013-02-25 01:14:00,
2013-02-24 17:19:00,58.1,9.2,30.03,SSW,205,0.0,4.0,14,0.00,,---,0.00,VWS V14.01,2013-02-25 01:19:00,
2013-02-24 17:24:00,57.6,10.3,30.03,SSW,205,1.0,4.0,15,0.00,,---,0.00,VWS V14.01,2013-02-25 01:24:00,
2013-02-24 17:29:00,57.2,8.4,30.04,SSW,203,2.0,4.0,14,0.00,,---,0.00,VWS V14.01,2013-02-25 01:29:00,
2013-02-24 17:34:00,56.9,4.8,30.04,NW,305,1.0,5.0,12,0.00,,---,0.00,VWS V14.01,2013-02-25 01:34:00,
2013-02-24 17:39:00,56.7,6.4,30.04,NW,313,0.0,5.0,13,0.00,,---,0.00,VWS V14.01,2013-02-25 01:39:00,
2013-02-24 17:44:00,56.5,6.3,30.05,NW,313,0.0,5.0,13,0.00,,---,0.00,VWS V14.01,2013-02-25 01:44:00,
2013-02-24 17:49:00,56.0,7.5,30.05,NW,313,0.0,5.0,14,0.00,,---,0.00,VWS V14.01,2013-02-25 01:49:00,
2013-02-24 17:54:00,55.4,11.3,30.05,NW,312,0.0,5.0,17,0.00,,---,0.00,VWS V14.01,2013-02-25 01:54:00,
2013-02-24 17:59:00,54.7,13.3,30.06,NW,312,0.0,5.0,19,0.00,,---,0.00,VWS V14.01,2013-02-25 01:59:00,
2013-02-24 18:04:00,53.9,12.6,30.06,NW,312,0.0,1.0,19,0.00,,---,0.00,VWS V14.01,2013-02-25 02:04:00,
2013-02-24 18:09:00,53.3,13.3,30.06,NW,312,0.0,1.0,20,0.00,,---,0.00,VWS V14.01,2013-02-25 02:09:00,
2013-02-24 18:14:00,52.8,11.7,30.07,SW,233,1.0,1.0,19,0.00,,---,0.00,VWS V14.01,2013-02-25 02:14:00,
2013-02-24 18:19:00,52.3,11.3,30.07,SSE,168,0.0,1.0,19,0.00,,---,0.00,VWS V14.01,2013-02-25 02:19:00,
2013-02-24 18:24:00,51.9,9.7,30.07,SSE,168,0.0,1.0,18,0.00,,---,0.00,VWS V14.01,2013-02-25 02:24:00,
2013-02-24 18:29:00,51.4,9.3,30.08,South,169,0.0,1.0,18,0.00,,---,0.00,VWS V14.01,2013-02-25 02:29:00,
2013-02-24 18:34:00,51.0,10.2,30.08,South,169,1.0,1.0,19,0.00,,---,0.00,VWS V14.01,2013-02-25 02:34:00,
2013-02-24 18:39:00,50.5,13.1,30.08,South,169,0.0,1.0,22,0.00,,---,0.00,VWS V14.01,2013-02-25 02:39:00,
2013-02-24 18:44:00,50.1,11.7,30.09,South,169,0.0,1.0,21,0.00,,---,0.00,VWS V14.01,2013-02-25 02:44:00,
2013-02-24 18:49:00,49.6,11.3,30.09,South,169,0.0,1.0,21,0.00,,---,0.00,VWS V14.01,2013-02-25 02:49:00,
2013-02-24 18:54:00,49.4,12.2,30.09,SSW,213,0.0,2.0,22,0.00,,---,0.00,VWS V14.01,2013-02-25 02:54:00,
2013-02-24 18:59:00,49.1,12.9,30.10,SW,232,0.0,2.0,23,0.00,,---,0.00,VWS V14.01,2013-02-25 02:59:00,
2013-02-24 19:04:00,48.6,12.5,30.10,SW,230,0.0,1.0,23,0.00,,---,0.00,VWS V14.01,2013-02-25 03:04:00,
2013-02-24 19:09:00,48.3,11.2,30.10,SW,230,0.0,1.0,22,0.00,,---,0.00,VWS V14.01,2013-02-25 03:09:00,
2013-02-24 19:14:00,48.2,12.1,30.10,SW,230,0.0,1.0,23,0.00,,---,0.00,VWS V14.01,2013-02-25 03:14:00,
2013-02-24 19:19:00,47.9,12.9,30.10,SW,230,0.0,1.0,24,0.00,,---,0.00,VWS V14.01,2013-02-25 03:19:00,
2013-02-24 19:24:00,47.4,12.4,30.10,SW,230,0.0,1.0,24,0.00,,---,0.00,VWS V14.01,2013-02-25 03:24:00,
2013-02-24 19:29:00,47.1,12.2,30.10,SW,230,0.0,1.0,24,0.00,,---,0.00,VWS V14.01,2013-02-25 03:29:00,
2013-02-24 19:34:00,46.8,13.7,30.10,SW,230,0.0,1.0,26,0.00,,---,0.00,VWS V14.01,2013-02-25 03:34:00,
2013-02-24 19:39:00,46.5,15.2,30.10,West,265,0.0,1.0,28,0.00,,---,0.00,VWS V14.01,2013-02-25 03:39:00,
2013-02-24 19:44:00,46.1,14.8,30.12,North,357,0.0,2.0,28,0.00,,---,0.00,VWS V14.01,2013-02-25 03:44:00,
2013-02-24 19:49:00,46.0,14.7,30.12,North,0,0.0,2.0,28,0.00,,---,0.00,VWS V14.01,2013-02-25 03:49:00,
2013-02-24 19:54:00,46.0,14.7,30.12,North,0,0.0,2.0,28,0.00,,---,0.00,VWS V14.01,2013-02-25 03:54:00,
2013-02-24 19:59:00,45.5,14.3,30.12,North,0,0.0,2.0,28,0.00,,---,0.00,VWS V14.01,2013-02-25 03:59:00,
2013-02-24 20:04:00,45.1,16.3,30.12,North,0,0.0,0.0,31,0.00,,---,0.00,VWS V14.01,2013-02-25 04:04:00,
2013-02-24 20:09:00,44.6,15.9,30.12,North,0,0.0,1.0,31,0.00,,---,0.00,VWS V14.01,2013-02-25 04:09:00,
2013-02-24 20:14:00,44.3,15.6,30.12,North,0,0.0,1.0,31,0.00,,---,0.00,VWS V14.01,2013-02-25 04:14:00,
2013-02-24 20:19:00,44.1,15.4,30.12,North,0,0.0,1.0,31,0.00,,---,0.00,VWS V14.01,2013-02-25 04:19:00,
2013-02-24 20:24:00,43.8,15.9,30.12,NE,42,0.0,1.0,32,0.00,,---,0.00,VWS V14.01,2013-02-25 04:24:00,
2013-02-24 20:29:00,43.5,15.6,30.12,East,96,0.0,1.0,32,0.00,,---,0.00,VWS V14.01,2013-02-25 04:29:00,
2013-02-24 20:34:00,43.5,16.3,30.12,SE,136,1.0,2.0,33,0.00,,---,0.00,VWS V14.01,2013-02-25 04:34:00,
2013-02-24 20:39:00,43.3,16.1,30.12,SE,136,0.0,2.0,33,0.00,,---,0.00,VWS V14.01,2013-02-25 04:39:00,
2013-02-24 20:44:00,43.3,14.7,30.12,SE,136,0.0,2.0,31,0.00,,---,0.00,VWS V14.01,2013-02-25 04:44:00,
2013-02-24 20:49:00,43.3,15.4,30.12,SE,136,0.0,2.0,32,0.00,,---,0.00,VWS V14.01,2013-02-25 04:49:00,
2013-02-24 20:54:00,43.5,15.6,30.12,SE,137,0.0,2.0,32,0.00,,---,0.00,VWS V14.01,2013-02-25 04:54:00,
2013-02-24 20:59:00,43.3,16.1,30.13,SE,137,0.0,2.0,33,0.00,,---,0.00,VWS V14.01,2013-02-25 04:59:00,
2013-02-24 21:00:00,43.3,16.1,30.13,SE,137,0.0,2.0,33,0.00,,---,0.00,VWS V14.01,2013-02-25 05:00:00,
2013-02-24 21:05:00,43.3,15.4,30.13,South,176,0.0,3.0,32,0.00,,---,0.00,VWS V14.01,2013-02-25 05:05:00,
2013-02-24 21:10:00,43.5,15.6,30.13,South,176,0.0,3.0,32,0.00,,---,0.00,VWS V14.01,2013-02-25 05:10:00,
2013-02-24 21:15:00,43.3,15.4,30.13,South,176,0.0,3.0,32,0.00,,---,0.00,VWS V14.01,2013-02-25 05:15:00,
2013-02-24 21:20:00,43.3,16.1,30.13,South,176,0.0,3.0,33,0.00,,---,0.00,VWS V14.01,2013-02-25 05:20:00,
2013-02-24 21:25:00,43.1,16.0,30.13,South,176,0.0,3.0,33,0.00,,---,0.00,VWS V14.01,2013-02-25 05:25:00,
2013-02-24 21:30:00,43.1,16.0,30.14,South,176,0.0,3.0,33,0.00,,---,0.00,VWS V14.01,2013-02-25 05:30:00,
2013-02-24 21:35:00,42.9,17.1,30.14,South,176,0.0,1.0,35,0.00,,---,0.00,VWS V14.01,2013-02-25 05:35:00,
2013-02-24 21:40:00,42.5,17.4,30.14,South,176,0.0,1.0,36,0.00,,---,0.00,VWS V14.01,2013-02-25 05:40:00,
2013-02-24 21:45:00,42.1,17.7,30.15,South,176,0.0,1.0,37,0.00,,---,0.00,VWS V14.01,2013-02-25 05:45:00,
2013-02-24 21:50:00,41.8,16.8,30.15,South,176,0.0,1.0,36,0.00,,---,0.00,VWS V14.01,2013-02-25 05:50:00,
2013-02-24 21:55:00,41.5,16.5,30.15,South,176,1.0,1.0,36,0.00,,---,0.00,VWS V14.01,2013-02-25 05:55:00,
2013-02-24 22:00:00,41.5,15.9,30.16,South,176,0.0,1.0,35,0.00,,---,0.00,VWS V14.01,2013-02-25 06:00:00,
2013-02-24 22:05:00,41.2,16.9,30.16,South,176,0.0,0.0,37,0.00,,---,0.00,VWS V14.01,2013-02-25 06:05:00,
2013-02-24 22:10:00,41.1,17.4,30.16,South,176,0.0,1.0,38,0.00,,---,0.00,VWS V14.01,2013-02-25 06:10:00,
2013-02-24 22:15:00,40.9,16.6,30.16,South,176,0.0,1.0,37,0.00,,---,0.00,VWS V14.01,2013-02-25 06:15:00,
2013-02-24 22:20:00,40.6,17.0,30.16,South,176,0.0,1.0,38,0.00,,---,0.00,VWS V14.01,2013-02-25 06:20:00,
2013-02-24 22:25:00,40.5,17.5,30.16,South,176,0.0,1.0,39,0.00,,---,0.00,VWS V14.01,2013-02-25 06:25:00,
2013-02-24 22:30:00,40.2,16.6,30.16,South,176,0.0,1.0,38,0.00,,---,0.00,VWS V14.01,2013-02-25 06:30:00,
2013-02-24 22:35:00,40.1,17.1,30.16,SSE,151,0.0,1.0,39,0.00,,---,0.00,VWS V14.01,2013-02-25 06:35:00,
2013-02-24 22:40:00,39.9,17.5,30.16,SSE,151,0.0,1.0,40,0.00,,---,0.00,VWS V14.01,2013-02-25 06:40:00,
2013-02-24 22:45:00,39.6,17.9,30.16,SSE,151,0.0,1.0,41,0.00,,---,0.00,VWS V14.01,2013-02-25 06:45:00,
2013-02-24 22:50:00,39.5,17.8,30.16,SSE,151,0.0,1.0,41,0.00,,---,0.00,VWS V14.01,2013-02-25 06:50:00,
2013-02-24 22:55:00,39.2,17.5,30.16,SSE,151,0.0,1.0,41,0.00,,---,0.00,VWS V14.01,2013-02-25 06:55:00,
2013-02-24 23:00:00,38.9,17.8,30.17,SSE,151,0.0,1.0,42,0.00,,---,0.00,VWS V14.01,2013-02-25 07:00:00,
2013-02-24 23:05:00,38.6,18.0,30.17,SSE,151,0.0,0.0,43,0.00,,---,0.00,VWS V14.01,2013-02-25 07:05:00,
2013-02-24 23:10:00,38.3,17.8,30.17,SSE,151,1.0,1.0,43,0.00,,---,0.00,VWS V14.01,2013-02-25 07:10:00,
2013-02-24 23:15:00,38.2,18.2,30.16,SSE,151,0.0,1.0,44,0.00,,---,0.00,VWS V14.01,2013-02-25 07:15:00,
2013-02-24 23:20:00,38.0,18.0,30.16,SSE,151,0.0,1.0,44,0.00,,---,0.00,VWS V14.01,2013-02-25 07:20:00,
2013-02-24 23:25:00,37.9,18.5,30.16,SSE,151,0.0,1.0,45,0.00,,---,0.00,VWS V14.01,2013-02-25 07:25:00,
2013-02-24 23:30:00,37.9,18.0,30.16,SSE,151,0.0,1.0,44,0.00,,---,0.00,VWS V14.01,2013-02-25 07:30:00,